,,Stat5,,Stat1,,Stat2,,Stat3,,Stat4,,Wind1,,Wind1,
time,status,PA1M_AVG,status,PR1M_SUM,status,RH1M_AVG,status,SR1M_AVG,status,TA1M_AVG,status,W1dAve1m,status,W1sAve1m,
2003-03-19, 00:00:01,VALID,920.419,VALID,0,VALID,99.854,VALID,-0.0849042,VALID,19.9796,VALID,198,VALID,0.561444,
2003-03-19, 00:01:00,VALID,920.41,VALID,0,VALID,99.8591,VALID,-0.101885,VALID,19.9762,VALID,186,VALID,0.320524,
2003-03-19, 00:02:00,VALID,920.412,VALID,0,VALID,99.8502,VALID,-0.0679233,VALID,19.9724,VALID,137,VALID,0.519942,
2003-03-19, 00:03:00,VALID,920.417,VALID,0,VALID,99.8566,VALID,-0.0849042,VALID,19.9762,VALID,145,VALID,0.445524,
2003-03-19, 00:04:00,VALID,920.426,VALID,0,VALID,99.8527,VALID,-0.0849042,VALID,19.9791,VALID,144,VALID,0.620404,
2003-03-19, 00:05:00,VALID,920.44,VALID,0,VALID,99.8515,VALID,-0.101885,VALID,19.9662,VALID,146,VALID,0.854102,
2003-03-19, 00:06:00,VALID,920.428,VALID,0,VALID,99.8604,VALID,-0.0849042,VALID,19.9597,VALID,145,VALID,0.901442,
2003-03-19, 00:07:00,VALID,920.455,VALID,0,VALID,99.8642,VALID,-0.0339617,VALID,19.963,VALID,142,VALID,1.34505,
2003-03-19, 00:08:00,VALID,920.483,VALID,0,VALID,99.8515,VALID,-0.0169808,VALID,19.9498,VALID,136,VALID,0.79988,
2003-03-19, 00:09:00,VALID,920.488,VALID,0,VALID,99.8515,VALID,-0.0169808,VALID,19.95,VALID,129,VALID,0.496622,
2003-03-19, 00:10:00,VALID,920.493,VALID,0,VALID,99.8553,VALID,-0.0339617,VALID,19.9565,VALID,150,VALID,1.00803,
2003-03-19, 00:11:00,VALID,920.485,VALID,0,VALID,99.8502,VALID,-0.0169808,VALID,19.9498,VALID,149,VALID,1.61759,
2003-03-19, 00:12:00,VALID,920.489,VALID,0,VALID,99.854,VALID,-0.0169808,VALID,19.9697,VALID,140,VALID,1.57852,
2003-03-19, 00:13:00,VALID,920.489,VALID,0,VALID,99.8515,VALID,0,VALID,19.9533,VALID,146,VALID,1.6215,
2003-03-19, 00:14:00,VALID,920.468,VALID,0,VALID,99.8489,VALID,-0.0169808,VALID,19.9533,VALID,147,VALID,1.17166,
2003-03-19, 00:15:00,VALID,920.463,VALID,0,VALID,99.8489,VALID,-0.0339617,VALID,19.9565,VALID,147,VALID,1.66102,
2003-03-19, 00:16:00,VALID,920.448,VALID,0,VALID,99.8578,VALID,-0.0339617,VALID,19.9498,VALID,147,VALID,1.22551,
2003-03-19, 00:17:00,VALID,920.447,VALID,0,VALID,99.8578,VALID,-0.0339617,VALID,19.9732,VALID,146,VALID,1.54235,
2003-03-19, 00:18:00,VALID,920.44,VALID,0,VALID,99.8489,VALID,0,VALID,19.9565,VALID,158,VALID,1.30148,
2003-03-19, 00:19:00,VALID,920.423,VALID,0,VALID,99.8566,VALID,0,VALID,19.963,VALID,145,VALID,1.3726,
2003-03-19, 00:20:00,VALID,920.412,VALID,0,VALID,99.8553,VALID,0,VALID,19.9597,VALID,134,VALID,1.07095,
2003-03-19, 00:21:00,VALID,920.404,VALID,0,VALID,99.8527,VALID,-0.0169808,VALID,19.9662,VALID,138,VALID,1.6215,
2003-03-19, 00:22:00,VALID,920.397,VALID,0,VALID,99.8718,VALID,-0.0339617,VALID,19.9568,VALID,149,VALID,1.8149,
2003-03-19, 00:23:00,VALID,920.399,VALID,0,VALID,99.8744,VALID,-0.0169808,VALID,19.9533,VALID,148,VALID,1.93069,
2003-03-19, 00:24:00,VALID,920.387,VALID,0,VALID,99.8616,VALID,0,VALID,19.9528,VALID,150,VALID,1.49793,
2003-03-19, 00:25:00,VALID,920.378,VALID,0,VALID,99.8693,VALID,-0.0169808,VALID,19.9699,VALID,150,VALID,1.79379,
2003-03-19, 00:26:00,VALID,920.37,VALID,0,VALID,99.868,VALID,-0.0169808,VALID,19.9533,VALID,151,VALID,1.70122,
2003-03-19, 00:27:00,VALID,920.369,VALID,0,VALID,99.8706,VALID,0,VALID,19.9533,VALID,143,VALID,1.29297,
2003-03-19, 00:28:00,VALID,920.352,VALID,0,VALID,99.8744,VALID,0,VALID,19.9528,VALID,152,VALID,1.46029,
2003-03-19, 00:29:00,VALID,920.345,VALID,0,VALID,99.8667,VALID,-0.0169808,VALID,19.9401,VALID,155,VALID,1.84005,
2003-03-19, 00:30:00,VALID,920.339,VALID,0,VALID,99.8706,VALID,-0.0169808,VALID,19.9272,VALID,143,VALID,1.78864,
2003-03-19, 00:31:00,VALID,920.32,VALID,0,VALID,99.8756,VALID,0,VALID,19.9207,VALID,133,VALID,1.21763,
2003-03-19, 00:32:00,VALID,920.315,VALID,0,VALID,99.8769,VALID,-0.0169808,VALID,19.9142,VALID,158,VALID,1.20067,
2003-03-19, 00:33:00,VALID,920.293,VALID,0,VALID,99.868,VALID,-0.0339617,VALID,19.9212,VALID,162,VALID,1.46731,
2003-03-19, 00:34:00,VALID,920.263,VALID,0,VALID,99.8706,VALID,-0.0169808,VALID,19.921,VALID,161,VALID,1.61298,
2003-03-19, 00:35:00,VALID,920.26,VALID,0,VALID,99.8718,VALID,-0.0339617,VALID,19.9142,VALID,136,VALID,1.35156,
2003-03-19, 00:36:00,VALID,920.252,VALID,0,VALID,99.8706,VALID,0,VALID,19.9078,VALID,125,VALID,1.53947,
2003-03-19, 00:37:00,VALID,920.24,VALID,0,VALID,99.8795,VALID,-0.0169808,VALID,19.9175,VALID,137,VALID,0.759502,
2003-03-19, 00:38:00,VALID,920.224,VALID,0,VALID,99.8642,VALID,0,VALID,19.9202,VALID,144,VALID,1.51763,
2003-03-19, 00:39:00,VALID,920.231,VALID,0,VALID,99.8706,VALID,0,VALID,19.9336,VALID,124,VALID,2.20433,
2003-03-19, 00:40:00,VALID,920.238,VALID,0,VALID,99.8706,VALID,0,VALID,19.9433,VALID,132,VALID,1.60877,
2003-03-19, 00:41:00,VALID,920.24,VALID,0,VALID,99.8667,VALID,0,VALID,19.9558,VALID,119,VALID,1.88437,
2003-03-19, 00:42:00,VALID,920.23,VALID,0,VALID,99.8706,VALID,0,VALID,19.9692,VALID,116,VALID,1.56445,
2003-03-19, 00:43:00,VALID,920.223,VALID,0,VALID,99.868,VALID,0,VALID,19.9724,VALID,107,VALID,1.46875,
2003-03-19, 00:44:00,VALID,920.217,VALID,0,VALID,99.8578,VALID,0,VALID,19.9819,VALID,107,VALID,1.39193,
2003-03-19, 00:45:00,VALID,920.207,VALID,0,VALID,99.8566,VALID,-0.0169808,VALID,19.9853,VALID,124,VALID,1.04329,
2003-03-19, 00:46:00,VALID,920.173,VALID,0,VALID,99.8477,VALID,0,VALID,20.005,VALID,108,VALID,1.31003,
2003-03-19, 00:47:00,VALID,920.185,VALID,0,VALID,99.8451,VALID,0,VALID,20.0147,VALID,109,VALID,1.37648,
2003-03-19, 00:48:00,VALID,920.159,VALID,0,VALID,99.8413,VALID,-0.0169808,VALID,20.0211,VALID,105,VALID,1.60346,
2003-03-19, 00:49:00,VALID,920.142,VALID,0,VALID,99.8426,VALID,-0.0169808,VALID,20.0209,VALID,113,VALID,1.56004,
2003-03-19, 00:50:00,VALID,920.14,VALID,0,VALID,99.826,VALID,0,VALID,20.0279,VALID,109,VALID,1.85958,
2003-03-19, 00:51:00,VALID,920.133,VALID,0,VALID,99.8159,VALID,-0.0169808,VALID,20.0177,VALID,133,VALID,2.14696,
2003-03-19, 00:52:00,VALID,920.13,VALID,0,VALID,99.7854,VALID,-0.0169808,VALID,20.0311,VALID,117,VALID,1.53277,
2003-03-19, 00:53:00,VALID,920.127,VALID,0,VALID,99.7726,VALID,0,VALID,20.0308,VALID,126,VALID,1.51191,
2003-03-19, 00:54:00,VALID,920.106,VALID,0,VALID,99.7459,VALID,-0.0339617,VALID,20.0405,VALID,146,VALID,1.42866,
2003-03-19, 00:55:00,VALID,920.093,VALID,0,VALID,99.7294,VALID,0,VALID,20.0435,VALID,139,VALID,1.46525,
2003-03-19, 00:56:00,VALID,920.1,VALID,0,VALID,99.7103,VALID,-0.0169808,VALID,20.0532,VALID,133,VALID,1.49063,
2003-03-19, 00:57:00,VALID,920.092,VALID,0,VALID,99.69,VALID,-0.0169808,VALID,20.0535,VALID,103,VALID,0.800881,
2003-03-19, 00:58:00,VALID,920.086,VALID,0,VALID,99.6684,VALID,-0.0339617,VALID,20.0564,VALID,135,VALID,1.23661,
2003-03-19, 00:59:00,VALID,920.081,VALID,0,VALID,99.6493,VALID,0,VALID,20.0532,VALID,148,VALID,2.11797,
2003-03-19, 01:00:00,VALID,920.072,VALID,0,VALID,99.6226,VALID,-0.0169808,VALID,20.0634,VALID,146,VALID,1.13824,
2003-03-19, 01:01:00,VALID,920.074,VALID,0,VALID,99.5921,VALID,-0.0169808,VALID,20.0763,VALID,144,VALID,1.38889,
2003-03-19, 01:02:00,VALID,920.058,VALID,0,VALID,99.5755,VALID,-0.0169808,VALID,20.0629,VALID,114,VALID,0.914463,
2003-03-19, 01:03:00,VALID,920.052,VALID,0,VALID,99.5514,VALID,0,VALID,20.0564,VALID,110,VALID,0.644531,
2003-03-19, 01:04:00,VALID,920.053,VALID,0,VALID,99.5221,VALID,-0.0169808,VALID,20.044,VALID,116,VALID,1.17455,
2003-03-19, 01:05:00,VALID,920.042,VALID,0,VALID,99.4992,VALID,-0.0679233,VALID,20.0246,VALID,86,VALID,1.05807,
2003-03-19, 01:06:00,VALID,920.038,VALID,0,VALID,99.4598,VALID,-0.0339617,VALID,20.0117,VALID,100,VALID,1.28906,
2003-03-19, 01:07:00,VALID,920.021,VALID,0,VALID,99.4166,VALID,-0.0339617,VALID,20.0052,VALID,100,VALID,1.32285,
2003-03-19, 01:08:00,VALID,920.028,VALID,0,VALID,99.3848,VALID,-0.0509425,VALID,19.9955,VALID,97,VALID,1.2757,
2003-03-19, 01:09:00,VALID,920.027,VALID,0,VALID,99.3708,VALID,-0.0679233,VALID,19.9921,VALID,100,VALID,1.01142,
2003-03-19, 01:10:00,VALID,920.027,VALID,0,VALID,99.3454,VALID,-0.0509425,VALID,19.9886,VALID,106,VALID,1.39704,
2003-03-19, 01:11:00,VALID,920.013,VALID,0.2,VALID,99.3492,VALID,-0.0339617,VALID,20.0047,VALID,86,VALID,0.591427,
2003-03-19, 01:12:00,VALID,920.01,VALID,0,VALID,99.3454,VALID,-0.0849042,VALID,20.0114,VALID,133,VALID,1.09807,
2003-03-19, 01:13:00,VALID,920.006,VALID,0,VALID,99.2983,VALID,-0.0849042,VALID,19.9953,VALID,107,VALID,1.29026,
2003-03-19, 01:14:00,VALID,919.991,VALID,0,VALID,99.2347,VALID,-0.0679233,VALID,19.9595,VALID,117,VALID,1.44631,
2003-03-19, 01:15:00,VALID,919.988,VALID,0,VALID,99.2513,VALID,-0.101885,VALID,19.9533,VALID,121,VALID,0.881664,
2003-03-19, 01:16:00,VALID,920,VALID,0,VALID,99.2093,VALID,-0.0849042,VALID,19.9433,VALID,104,VALID,1.21649,
2003-03-19, 01:17:00,VALID,919.975,VALID,0,VALID,99.1063,VALID,-0.0679233,VALID,19.914,VALID,94,VALID,1.42399,
2003-03-19, 01:18:00,VALID,919.977,VALID,0,VALID,99.1737,VALID,-0.0509425,VALID,19.9279,VALID,106,VALID,1.17925,
2003-03-19, 01:19:00,VALID,919.981,VALID,0,VALID,99.0771,VALID,-0.0849042,VALID,19.9043,VALID,118,VALID,1.29102,
2003-03-19, 01:20:00,VALID,919.996,VALID,0,VALID,99.1114,VALID,-0.0849042,VALID,19.8886,VALID,121,VALID,0.797492,
2003-03-19, 01:21:00,VALID,919.999,VALID,0,VALID,98.913,VALID,-0.0849042,VALID,19.8596,VALID,122,VALID,1.41997,
2003-03-19, 01:22:00,VALID,919.997,VALID,0,VALID,98.7147,VALID,-0.0509425,VALID,19.7952,VALID,118,VALID,1.69554,
2003-03-19, 01:23:00,VALID,920.01,VALID,0,VALID,98.7719,VALID,-0.0849042,VALID,19.7688,VALID,133,VALID,0.84308,
2003-03-19, 01:24:00,VALID,920.024,VALID,0,VALID,98.721,VALID,-0.0509425,VALID,19.7454,VALID,123,VALID,1.07278,
2003-03-19, 01:25:00,VALID,920.028,VALID,0,VALID,98.6892,VALID,-0.0679233,VALID,19.7459,VALID,125,VALID,1.47135,
2003-03-19, 01:26:00,VALID,920.014,VALID,0,VALID,98.6333,VALID,-0.0509425,VALID,19.7238,VALID,114,VALID,1.59238,
2003-03-19, 01:27:00,VALID,920.023,VALID,0,VALID,98.6053,VALID,-0.0169808,VALID,19.7141,VALID,117,VALID,1.31846,
2003-03-19, 01:28:00,VALID,920.016,VALID,0,VALID,98.6129,VALID,-0.0679233,VALID,19.7111,VALID,126,VALID,1.4147,
2003-03-19, 01:29:00,VALID,920.002,VALID,0,VALID,98.5939,VALID,-0.0679233,VALID,19.6913,VALID,123,VALID,1.40345,
2003-03-19, 01:30:00,VALID,919.993,VALID,0.2,VALID,98.5061,VALID,-0.0849042,VALID,19.6624,VALID,137,VALID,1.41647,
2003-03-19, 01:31:00,VALID,919.977,VALID,0,VALID,98.4883,VALID,-0.0679233,VALID,19.6562,VALID,136,VALID,1.45913,
2003-03-19, 01:32:00,VALID,919.942,VALID,0,VALID,98.2683,VALID,-0.0679233,VALID,19.6102,VALID,140,VALID,1.99866,
2003-03-19, 01:33:00,VALID,919.909,VALID,0,VALID,98.2505,VALID,-0.0679233,VALID,19.5943,VALID,127,VALID,1.45313,
2003-03-19, 01:34:00,VALID,919.885,VALID,0,VALID,98.2302,VALID,-0.0679233,VALID,19.5685,VALID,134,VALID,1.54905,
2003-03-19, 01:35:00,VALID,919.867,VALID,0.2,VALID,98.2645,VALID,-0.0679233,VALID,19.5456,VALID,136,VALID,1.61589,
2003-03-19, 01:36:00,VALID,919.85,VALID,0,VALID,98.4502,VALID,-0.0509425,VALID,19.5754,VALID,133,VALID,1.23057,
2003-03-19, 01:37:00,VALID,919.83,VALID,0.2,VALID,98.604,VALID,-0.0339617,VALID,19.5948,VALID,108,VALID,2.4338,
2003-03-19, 01:38:00,VALID,919.797,VALID,0,VALID,98.6435,VALID,-0.0679233,VALID,19.6137,VALID,137,VALID,2.2272,
2003-03-19, 01:39:00,VALID,919.805,VALID,0.2,VALID,98.7159,VALID,-0.0679233,VALID,19.6463,VALID,127,VALID,1.28484,
2003-03-19, 01:40:00,VALID,919.806,VALID,0,VALID,98.7236,VALID,-0.0679233,VALID,19.656,VALID,140,VALID,2.39955,
2003-03-19, 01:41:00,VALID,919.781,VALID,0,VALID,98.7261,VALID,-0.0509425,VALID,19.6398,VALID,134,VALID,1.61349,
2003-03-19, 01:42:00,VALID,919.767,VALID,0.2,VALID,98.8202,VALID,-0.0169808,VALID,19.6331,VALID,141,VALID,1.51457,
2003-03-19, 01:43:00,VALID,919.755,VALID,0.2,VALID,98.8825,VALID,-0.0509425,VALID,19.6234,VALID,117,VALID,1.5383,
2003-03-19, 01:44:00,VALID,919.723,VALID,0,VALID,98.9423,VALID,-0.0679233,VALID,19.6244,VALID,120,VALID,1.12188,
2003-03-19, 01:45:00,VALID,919.707,VALID,0.2,VALID,99.0186,VALID,-0.101885,VALID,19.601,VALID,103,VALID,1.62767,
2003-03-19, 01:46:00,VALID,919.694,VALID,0,VALID,99.0186,VALID,-0.0509425,VALID,19.5784,VALID,122,VALID,1.81805,
2003-03-19, 01:47:00,VALID,919.69,VALID,0,VALID,99.0491,VALID,-0.0849042,VALID,19.5528,VALID,126,VALID,1.71426,
2003-03-19, 01:48:00,VALID,919.656,VALID,0.2,VALID,99.1089,VALID,-0.101885,VALID,19.517,VALID,132,VALID,1.24299,
2003-03-19, 01:49:00,VALID,919.625,VALID,0,VALID,99.0237,VALID,-0.0679233,VALID,19.4946,VALID,139,VALID,1.94866,
2003-03-19, 01:50:00,VALID,919.617,VALID,0.2,VALID,99.1,VALID,-0.0679233,VALID,19.4628,VALID,137,VALID,1.37051,
2003-03-19, 01:51:00,VALID,919.628,VALID,0,VALID,99.189,VALID,-0.101885,VALID,19.4526,VALID,136,VALID,1.08572,
2003-03-19, 01:52:00,VALID,919.606,VALID,0,VALID,99.2487,VALID,-0.0679233,VALID,19.4464,VALID,127,VALID,1.21181,
2003-03-19, 01:53:01,VALID,919.587,VALID,0.2,VALID,99.2869,VALID,-0.0169808,VALID,19.4233,VALID,132,VALID,1.31751,
2003-03-19, 01:54:00,VALID,919.558,VALID,0,VALID,99.2996,VALID,-0.0679233,VALID,19.4041,VALID,118,VALID,1.39988,
2003-03-19, 01:55:00,VALID,919.547,VALID,0,VALID,99.3212,VALID,-0.0339617,VALID,19.3845,VALID,125,VALID,0.967722,
2003-03-19, 01:56:00,VALID,919.541,VALID,0,VALID,99.3492,VALID,-0.0679233,VALID,19.3783,VALID,113,VALID,0.936444,
2003-03-19, 01:57:00,VALID,919.519,VALID,0,VALID,99.381,VALID,-0.0339617,VALID,19.3619,VALID,97,VALID,0.544922,
2003-03-19, 01:58:00,VALID,919.506,VALID,0,VALID,99.3899,VALID,-0.0679233,VALID,19.3529,VALID,108,VALID,1.54181,
2003-03-19, 01:59:00,VALID,919.498,VALID,0.2,VALID,99.4204,VALID,-0.0509425,VALID,19.3293,VALID,110,VALID,0.769737,
2003-03-19, 02:00:00,VALID,919.493,VALID,0,VALID,99.4484,VALID,-0.0849042,VALID,19.3335,VALID,114,VALID,1.42248,
2003-03-19, 02:01:00,VALID,919.494,VALID,0,VALID,99.4535,VALID,-0.0509425,VALID,19.3107,VALID,116,VALID,1.58994,
2003-03-19, 02:02:00,VALID,919.477,VALID,0,VALID,99.4675,VALID,-0.0679233,VALID,19.2943,VALID,118,VALID,1.17082,
2003-03-19, 02:03:00,VALID,919.444,VALID,0,VALID,99.4865,VALID,-0.0509425,VALID,19.3042,VALID,125,VALID,0.994243,
2003-03-19, 02:04:00,VALID,919.429,VALID,0,VALID,99.4751,VALID,-0.0679233,VALID,19.2749,VALID,115,VALID,1.73197,
2003-03-19, 02:05:00,VALID,919.406,VALID,0.2,VALID,99.4878,VALID,-0.0679233,VALID,19.2756,VALID,123,VALID,1.07031,
2003-03-19, 02:06:00,VALID,919.404,VALID,0,VALID,99.5158,VALID,-0.0509425,VALID,19.2754,VALID,145,VALID,0.794577,
2003-03-19, 02:07:00,VALID,919.405,VALID,0,VALID,99.5158,VALID,-0.0339617,VALID,19.259,VALID,136,VALID,1.62829,
2003-03-19, 02:08:00,VALID,919.395,VALID,0,VALID,99.5259,VALID,-0.0339617,VALID,19.2461,VALID,127,VALID,1.71052,
2003-03-19, 02:09:00,VALID,919.377,VALID,0,VALID,99.5221,VALID,-0.0339617,VALID,19.2465,VALID,125,VALID,1.98242,
2003-03-19, 02:10:00,VALID,919.375,VALID,0,VALID,99.5552,VALID,-0.0339617,VALID,19.2493,VALID,123,VALID,1.38346,
2003-03-19, 02:11:00,VALID,919.373,VALID,0,VALID,99.5641,VALID,-0.0849042,VALID,19.2458,VALID,133,VALID,1.51501,
2003-03-19, 02:12:01,VALID,919.373,VALID,0,VALID,99.5641,VALID,-0.0339617,VALID,19.2428,VALID,127,VALID,1.25971,
2003-03-19, 02:13:00,VALID,919.346,VALID,0,VALID,99.5641,VALID,-0.0169808,VALID,19.2331,VALID,137,VALID,1.38348,
2003-03-19, 02:14:00,VALID,919.348,VALID,0.2,VALID,99.5743,VALID,-0.0679233,VALID,19.217,VALID,124,VALID,1.82656,
2003-03-19, 02:15:00,VALID,919.33,VALID,0,VALID,99.5794,VALID,-0.0679233,VALID,19.2135,VALID,137,VALID,1.41468,
2003-03-19, 02:16:01,VALID,919.313,VALID,0,VALID,99.5972,VALID,-0.0679233,VALID,19.2108,VALID,133,VALID,1.83133,
2003-03-19, 02:17:00,VALID,919.304,VALID,0,VALID,99.601,VALID,-0.0849042,VALID,19.2008,VALID,151,VALID,1.73379,
2003-03-19, 02:18:00,VALID,919.296,VALID,0,VALID,99.6162,VALID,-0.101885,VALID,19.2045,VALID,144,VALID,1.73232,
2003-03-19, 02:19:00,VALID,919.279,VALID,0,VALID,99.6302,VALID,-0.0679233,VALID,19.1916,VALID,147,VALID,1.71495,
2003-03-19, 02:20:00,VALID,919.267,VALID,0,VALID,99.6353,VALID,-0.0679233,VALID,19.1847,VALID,145,VALID,2.01342,
2003-03-19, 02:21:01,VALID,919.246,VALID,0,VALID,99.6289,VALID,-0.0509425,VALID,19.1685,VALID,149,VALID,1.63141,
2003-03-19, 02:22:00,VALID,919.22,VALID,0.2,VALID,99.6569,VALID,-0.0509425,VALID,19.1819,VALID,153,VALID,2.05268,
2003-03-19, 02:23:01,VALID,919.203,VALID,0,VALID,99.6747,VALID,-0.0339617,VALID,19.1655,VALID,148,VALID,2.23549,
2003-03-19, 02:24:00,VALID,919.2,VALID,0,VALID,99.676,VALID,-0.0849042,VALID,19.1655,VALID,137,VALID,2.58691,
2003-03-19, 02:25:00,VALID,919.173,VALID,0,VALID,99.6684,VALID,-0.101885,VALID,19.1496,VALID,144,VALID,1.94423,
2003-03-19, 02:26:01,VALID,919.17,VALID,0,VALID,99.6658,VALID,-0.0849042,VALID,19.1233,VALID,151,VALID,2.2003,
2003-03-19, 02:27:00,VALID,919.16,VALID,0,VALID,99.6658,VALID,0,VALID,19.1138,VALID,147,VALID,1.79793,
2003-03-19, 02:28:01,VALID,919.114,VALID,0,VALID,99.6646,VALID,-0.0679233,VALID,19.0944,VALID,141,VALID,2.09169,
2003-03-19, 02:29:00,VALID,919.097,VALID,0,VALID,99.662,VALID,-0.0169808,VALID,19.0917,VALID,136,VALID,1.82834,
2003-03-19, 02:30:00,VALID,919.086,VALID,0,VALID,99.6671,VALID,-0.101885,VALID,19.0887,VALID,128,VALID,1.72065,
2003-03-19, 02:31:00,VALID,919.059,VALID,0,VALID,99.6696,VALID,-0.0509425,VALID,19.085,VALID,120,VALID,1.4154,
2003-03-19, 02:32:00,VALID,919.028,VALID,0,VALID,99.6798,VALID,-0.0849042,VALID,19.0815,VALID,133,VALID,1.54811,
2003-03-19, 02:33:01,VALID,918.577,VALID,0,VALID,99.6684,VALID,-0.0509425,VALID,19.0651,VALID,121,VALID,1.96009,
2003-03-19, 02:34:01,VALID,918.973,VALID,0.2,VALID,99.6773,VALID,-0.0339617,VALID,19.0527,VALID,104,VALID,1.58899,
2003-03-19, 02:35:00,VALID,918.936,VALID,0,VALID,99.6633,VALID,-0.0509425,VALID,19.0462,VALID,124,VALID,2.38301,
2003-03-19, 02:36:01,VALID,918.923,VALID,0,VALID,99.6696,VALID,0,VALID,19.0261,VALID,101,VALID,1.8787,
2003-03-19, 02:37:00,VALID,918.893,VALID,0,VALID,99.6671,VALID,-0.0509425,VALID,19.0303,VALID,122,VALID,1.58368,
2003-03-19, 02:38:00,VALID,918.902,VALID,0,VALID,99.6646,VALID,-0.0509425,VALID,19.0233,VALID,123,VALID,1.35742,
2003-03-19, 02:39:00,VALID,918.889,VALID,0,VALID,99.6658,VALID,-0.0509425,VALID,19.0271,VALID,121,VALID,1.36558,
2003-03-19, 02:40:01,VALID,918.882,VALID,0,VALID,99.6633,VALID,-0.101885,VALID,19.0176,VALID,108,VALID,2.11585,
2003-03-19, 02:41:00,VALID,918.864,VALID,0,VALID,99.6646,VALID,-0.0679233,VALID,19.0077,VALID,125,VALID,2.5457,
2003-03-19, 02:42:00,VALID,918.861,VALID,0,VALID,99.6468,VALID,-0.0679233,VALID,18.9947,VALID,121,VALID,2.54145,
2003-03-19, 02:43:01,VALID,918.849,VALID,0,VALID,99.6455,VALID,-0.0679233,VALID,18.9906,VALID,102,VALID,1.49957,
2003-03-19, 02:44:01,VALID,918.847,VALID,0.2,VALID,99.6493,VALID,-0.0509425,VALID,19.0037,VALID,111,VALID,1.15745,
2003-03-19, 02:45:00,VALID,918.831,VALID,0,VALID,99.6506,VALID,-0.0679233,VALID,19.0111,VALID,125,VALID,1.73479,
2003-03-19, 02:46:01,VALID,918.828,VALID,0,VALID,99.6518,VALID,-0.0679233,VALID,18.9947,VALID,100,VALID,2.26686,
2003-03-19, 02:47:00,VALID,918.826,VALID,0,VALID,99.6671,VALID,-0.0509425,VALID,18.9786,VALID,119,VALID,1.94996,
2003-03-19, 02:48:00,VALID,918.822,VALID,0,VALID,99.648,VALID,-0.0679233,VALID,18.9689,VALID,123,VALID,1.68273,
2003-03-19, 02:49:00,VALID,918.821,VALID,0,VALID,99.6518,VALID,-0.0509425,VALID,18.9456,VALID,116,VALID,2.50232,
2003-03-19, 02:50:00,VALID,918.821,VALID,0,VALID,99.6493,VALID,-0.0169808,VALID,18.9428,VALID,132,VALID,1.7426,
2003-03-19, 02:51:01,VALID,918.805,VALID,0,VALID,99.6366,VALID,-0.0339617,VALID,18.9334,VALID,118,VALID,3.1258,
2003-03-19, 02:52:00,VALID,918.81,VALID,0,VALID,99.6175,VALID,-0.0339617,VALID,18.9098,VALID,109,VALID,1.94671,
2003-03-19, 02:53:01,VALID,918.787,VALID,0,VALID,99.6137,VALID,0,VALID,18.9167,VALID,110,VALID,1.67821,
2003-03-19, 02:54:01,VALID,918.766,VALID,0,VALID,99.5857,VALID,0,VALID,18.8902,VALID,129,VALID,2.58943,
2003-03-19, 02:55:00,VALID,918.756,VALID,0,VALID,99.5755,VALID,-0.0169808,VALID,18.8839,VALID,124,VALID,2.10837,
2003-03-19, 02:56:00,VALID,918.746,VALID,0,VALID,99.5577,VALID,0,VALID,18.8879,VALID,142,VALID,2.17528,
2003-03-19, 02:57:00,VALID,918.705,VALID,0,VALID,99.5196,VALID,-0.0169808,VALID,18.8747,VALID,136,VALID,2.4421,
2003-03-19, 02:58:00,VALID,918.698,VALID,0,VALID,99.4814,VALID,0,VALID,18.862,VALID,125,VALID,2.61924,
2003-03-19, 02:59:00,VALID,918.671,VALID,0,VALID,99.4433,VALID,-0.0339617,VALID,18.8553,VALID,118,VALID,1.99683,
2003-03-19, 03:00:00,VALID,918.65,VALID,0,VALID,99.4649,VALID,-0.0509425,VALID,18.8583,VALID,129,VALID,2.04058,
2003-03-19, 03:01:00,VALID,918.629,VALID,0,VALID,99.4484,VALID,-0.0169808,VALID,18.8553,VALID,114,VALID,1.95074,
2003-03-19, 03:02:00,VALID,918.623,VALID,0,VALID,99.4293,VALID,-0.0169808,VALID,18.8491,VALID,124,VALID,2.14206,
2003-03-19, 03:03:01,VALID,918.612,VALID,0,VALID,99.4433,VALID,-0.0169808,VALID,18.8493,VALID,78,VALID,1.9622,
2003-03-19, 03:04:00,VALID,918.607,VALID,0,VALID,99.4382,VALID,0,VALID,18.8293,VALID,115,VALID,1.93013,
2003-03-19, 03:05:00,VALID,918.613,VALID,0,VALID,99.4446,VALID,-0.0339617,VALID,18.8295,VALID,106,VALID,1.46942,
2003-03-19, 03:06:00,VALID,918.6,VALID,0,VALID,99.4496,VALID,-0.0169808,VALID,18.8265,VALID,126,VALID,1.59868,
2003-03-19, 03:07:01,VALID,918.602,VALID,0,VALID,99.4789,VALID,0,VALID,18.8198,VALID,112,VALID,2.03626,
2003-03-19, 03:08:00,VALID,918.595,VALID,0,VALID,99.4776,VALID,-0.0169808,VALID,18.8166,VALID,120,VALID,1.5002,
2003-03-19, 03:09:00,VALID,918.599,VALID,0,VALID,99.4929,VALID,-0.0339617,VALID,18.8066,VALID,94,VALID,1.59971,
2003-03-19, 03:10:00,VALID,918.603,VALID,0.2,VALID,99.512,VALID,-0.0339617,VALID,18.8168,VALID,87,VALID,0.973395,
2003-03-19, 03:11:00,VALID,918.591,VALID,0,VALID,99.5234,VALID,-0.0169808,VALID,18.8131,VALID,48,VALID,1.61919,
2003-03-19, 03:12:01,VALID,918.58,VALID,0,VALID,99.5234,VALID,-0.0339617,VALID,18.8203,VALID,83,VALID,2.38542,
2003-03-19, 03:13:00,VALID,918.603,VALID,0,VALID,99.5094,VALID,0,VALID,18.8103,VALID,76,VALID,1.95493,
2003-03-19, 03:14:01,VALID,918.612,VALID,0,VALID,99.4878,VALID,0,VALID,18.8073,VALID,88,VALID,2.49777,
2003-03-19, 03:15:00,VALID,918.618,VALID,0,VALID,99.4636,VALID,-0.0169808,VALID,18.8103,VALID,65,VALID,2.06094,
2003-03-19, 03:16:00,VALID,918.617,VALID,0,VALID,99.381,VALID,-0.0169808,VALID,18.8106,VALID,79,VALID,2.49132,
2003-03-19, 03:17:01,VALID,918.619,VALID,0,VALID,99.3136,VALID,-0.0169808,VALID,18.7875,VALID,72,VALID,2.4872,
2003-03-19, 03:18:00,VALID,918.628,VALID,0,VALID,99.2487,VALID,-0.0339617,VALID,18.7942,VALID,81,VALID,2.91153,
2003-03-19, 03:19:01,VALID,918.647,VALID,0,VALID,99.1445,VALID,-0.0849042,VALID,18.7944,VALID,90,VALID,3.14083,
2003-03-19, 03:20:00,VALID,918.642,VALID,0,VALID,98.9715,VALID,-0.0509425,VALID,18.791,VALID,118,VALID,2.75021,
2003-03-19, 03:21:00,VALID,918.645,VALID,0,VALID,98.8723,VALID,-0.0169808,VALID,18.8103,VALID,94,VALID,2.84776,
2003-03-19, 03:22:00,VALID,918.66,VALID,0,VALID,98.7821,VALID,-0.0509425,VALID,18.8367,VALID,105,VALID,2.42344,
2003-03-19, 03:23:00,VALID,918.683,VALID,0,VALID,98.7134,VALID,-0.0339617,VALID,18.8332,VALID,118,VALID,2.26069,
2003-03-19, 03:24:01,VALID,918.683,VALID,0,VALID,98.7134,VALID,-0.0509425,VALID,18.8367,VALID,91,VALID,2.02555,
2003-03-19, 03:25:01,VALID,918.69,VALID,0,VALID,98.7312,VALID,-0.0509425,VALID,18.8399,VALID,98,VALID,2.28087,
2003-03-19, 03:26:00,VALID,918.666,VALID,0,VALID,98.735,VALID,-0.0169808,VALID,18.833,VALID,105,VALID,1.7916,
2003-03-19, 03:27:01,VALID,918.668,VALID,0,VALID,98.721,VALID,-0.0509425,VALID,18.8267,VALID,93,VALID,2.91488,
2003-03-19, 03:28:00,VALID,918.648,VALID,0,VALID,98.6358,VALID,0,VALID,18.8367,VALID,118,VALID,2.58409,
2003-03-19, 03:29:00,VALID,918.624,VALID,0,VALID,98.543,VALID,0,VALID,18.8426,VALID,102,VALID,2.83535,
2003-03-19, 03:30:00,VALID,918.616,VALID,0,VALID,98.4184,VALID,0,VALID,18.8553,VALID,100,VALID,2.5014,
2003-03-19, 03:31:01,VALID,918.601,VALID,0,VALID,98.3815,VALID,-0.0339617,VALID,18.8819,VALID,91,VALID,2.25558,
2003-03-19, 03:32:00,VALID,918.593,VALID,0,VALID,98.2747,VALID,-0.0339617,VALID,18.8713,VALID,98,VALID,2.75938,
2003-03-19, 03:33:00,VALID,918.588,VALID,0,VALID,98.2569,VALID,-0.0169808,VALID,18.875,VALID,92,VALID,2.78776,